Location: Heathcote
(40.9845°N, 73.7746°W)
Time: 13:19:55
(UTC+00:00)

Cosmos 1758 Rocket - Pass Details

Date: 29 October 2020
Orbit: 601 x 637 km, 82.5° (Epoch: 01 December)

Event Time Altitude Azimuth Distance (km) Brightness Sun altitude
Rises 22:20:30 0° 348° (NNW) 2,900 7.0 -5.7°
Reaches altitude 10° 22:22:45 10° 344° (NNW) 1,984 6.2 -6.1°
Maximum altitude 22:27:04 59° 266° (W) 710 4.3 -6.9°
Drops below altitude 10° 22:31:18 10° 187° (S) 1,949 6.4 -7.6°
Sets 22:33:31 0° 183° (S) 2,843 7.2 -8.1°
